Year,Month,Day,Hour,Minute,Value (Times are PST for temperature in C)
2006,10,31,00,00,-3.70
2006,10,31,00,01,-3.70
2006,10,31,00,02,-3.70
2006,10,31,00,03,-3.70
2006,10,31,00,04,-3.70
2006,10,31,00,05,-3.70
2006,10,31,00,06,-3.70
2006,10,31,00,07,-3.70
2006,10,31,00,08,-3.60
2006,10,31,00,09,-3.70
2006,10,31,00,10,-3.70
2006,10,31,00,11,-3.70
2006,10,31,00,12,-3.70
2006,10,31,00,13,-3.70
2006,10,31,00,14,-3.70
2006,10,31,00,15,-3.70
2006,10,31,00,16,-3.70
2006,10,31,00,17,-3.70
2006,10,31,00,18,-3.70
2006,10,31,00,19,-3.80
2006,10,31,00,20,-3.80
2006,10,31,00,21,-3.80
2006,10,31,00,22,-3.80
2006,10,31,00,23,-3.80
2006,10,31,00,24,-3.80
2006,10,31,00,25,-3.80
2006,10,31,00,26,-3.80
2006,10,31,00,27,-3.90
2006,10,31,00,28,-3.90
2006,10,31,00,29,-3.90
2006,10,31,00,30,-3.90
2006,10,31,00,31,-3.90
2006,10,31,00,32,-3.90
2006,10,31,00,33,-3.90
2006,10,31,00,34,-3.90
2006,10,31,00,35,-3.90
2006,10,31,00,36,-3.90
2006,10,31,00,37,-3.90
2006,10,31,00,38,-3.90
2006,10,31,00,39,-3.90
2006,10,31,00,40,-3.80
2006,10,31,00,41,-3.80
2006,10,31,00,42,-3.90
2006,10,31,00,43,-3.90
2006,10,31,00,44,-3.90
2006,10,31,00,45,-3.90
2006,10,31,00,46,-3.90
2006,10,31,00,47,-4.00
2006,10,31,00,48,-4.00
2006,10,31,00,49,-4.00
2006,10,31,00,50,-4.00
2006,10,31,00,51,-4.00
2006,10,31,00,52,-4.00
2006,10,31,00,53,-3.90
2006,10,31,00,54,-3.90
2006,10,31,00,55,-3.90
2006,10,31,00,56,-3.90
2006,10,31,00,57,-3.90
2006,10,31,00,58,-3.80
2006,10,31,00,59,-3.90
2006,10,31,01,00,-3.90
2006,10,31,01,01,-3.90
2006,10,31,01,02,-3.90
2006,10,31,01,03,-3.90
2006,10,31,01,04,-4.00
2006,10,31,01,05,-4.00
2006,10,31,01,06,-4.00
2006,10,31,01,07,-4.00
2006,10,31,01,08,-4.10
2006,10,31,01,09,-4.10
2006,10,31,01,10,-4.10
2006,10,31,01,11,-4.10
2006,10,31,01,12,-4.10
2006,10,31,01,13,-4.10
2006,10,31,01,14,-4.20
2006,10,31,01,15,-4.20
2006,10,31,01,16,-4.20
2006,10,31,01,17,-4.20
2006,10,31,01,18,-4.20
2006,10,31,01,19,-4.20
2006,10,31,01,20,-4.10
2006,10,31,01,21,-4.10
2006,10,31,01,22,-4.10
2006,10,31,01,23,-4.10
2006,10,31,01,24,-4.10
2006,10,31,01,25,-4.10
2006,10,31,01,26,-4.10
2006,10,31,01,27,-4.10
2006,10,31,01,28,-4.10
2006,10,31,01,29,-4.10
2006,10,31,01,30,-4.10
2006,10,31,01,31,-4.10
2006,10,31,01,32,-4.10
2006,10,31,01,33,-4.10
2006,10,31,01,34,-4.10
2006,10,31,01,35,-4.10
2006,10,31,01,36,-4.10
2006,10,31,01,37,-4.10
2006,10,31,01,38,-4.10
2006,10,31,01,39,-4.20
2006,10,31,01,40,-4.20
2006,10,31,01,41,-4.20
2006,10,31,01,42,-4.20
2006,10,31,01,43,-4.20
2006,10,31,01,44,-4.10
2006,10,31,01,45,-4.10
2006,10,31,01,46,-4.00
2006,10,31,01,47,-4.00
2006,10,31,01,48,-4.00
2006,10,31,01,49,-4.00
2006,10,31,01,50,-4.00
2006,10,31,01,51,-4.00
2006,10,31,01,52,-4.00
2006,10,31,01,53,-4.10
2006,10,31,01,54,-4.10
2006,10,31,01,55,-4.20
2006,10,31,01,56,-4.20
2006,10,31,01,57,-4.20
2006,10,31,01,58,-4.20
2006,10,31,01,59,-4.20
2006,10,31,02,00,-4.20
2006,10,31,02,01,-4.20
2006,10,31,02,02,-4.30
2006,10,31,02,03,-4.30
2006,10,31,02,04,-4.30
2006,10,31,02,05,-4.30
2006,10,31,02,06,-4.30
2006,10,31,02,07,-4.30
2006,10,31,02,08,-4.30
2006,10,31,02,09,-4.30
2006,10,31,02,10,-4.30
2006,10,31,02,11,-4.30
2006,10,31,02,12,-4.30
2006,10,31,02,13,-4.30
2006,10,31,02,14,-4.30
2006,10,31,02,15,-4.30
2006,10,31,02,16,-4.40
2006,10,31,02,17,-4.40
2006,10,31,02,18,-4.40
2006,10,31,02,19,-4.40
2006,10,31,02,20,-4.40
2006,10,31,02,21,-4.40
2006,10,31,02,22,-4.50
2006,10,31,02,23,-4.50
2006,10,31,02,24,-4.50
2006,10,31,02,25,-4.50
2006,10,31,02,26,-4.50
2006,10,31,02,27,-4.50
2006,10,31,02,28,-4.50
2006,10,31,02,29,-4.50
2006,10,31,02,30,-4.60
2006,10,31,02,31,-4.60
2006,10,31,02,32,-4.60
2006,10,31,02,33,-4.60
2006,10,31,02,34,-4.50
2006,10,31,02,35,-4.40
2006,10,31,02,36,-4.40
2006,10,31,02,37,-4.30
2006,10,31,02,38,-4.20
2006,10,31,02,39,-4.20
2006,10,31,02,40,-4.20
2006,10,31,02,41,-4.20
2006,10,31,02,42,-4.20
2006,10,31,02,43,-4.20
2006,10,31,02,44,-4.20
2006,10,31,02,45,-4.20
2006,10,31,02,46,-4.20
2006,10,31,02,47,-4.20
2006,10,31,02,48,-4.20
2006,10,31,02,49,-4.20
2006,10,31,02,50,-4.20
2006,10,31,02,51,-4.20
2006,10,31,02,52,-4.30
2006,10,31,02,53,-4.30
2006,10,31,02,54,-4.30
2006,10,31,02,55,-4.30
2006,10,31,02,56,-4.30
2006,10,31,02,57,-4.30
2006,10,31,02,58,-4.30
2006,10,31,02,59,-4.30
2006,10,31,03,00,-4.30
2006,10,31,03,01,-4.30
2006,10,31,03,02,-4.20
2006,10,31,03,03,-4.20
2006,10,31,03,04,-4.20
2006,10,31,03,05,-4.20
2006,10,31,03,06,-4.20
2006,10,31,03,07,-4.10
2006,10,31,03,08,-4.10
2006,10,31,03,09,-4.10
2006,10,31,03,10,-4.10
2006,10,31,03,11,-4.10
2006,10,31,03,12,-4.10
2006,10,31,03,13,-4.10
2006,10,31,03,14,-4.10
2006,10,31,03,15,-4.20
2006,10,31,03,16,-4.20
2006,10,31,03,17,-4.20
2006,10,31,03,18,-4.20
2006,10,31,03,19,-4.30
2006,10,31,03,20,-4.30
2006,10,31,03,21,-4.30
2006,10,31,03,22,-4.40
2006,10,31,03,23,-4.40
2006,10,31,03,24,-4.40
2006,10,31,03,25,-4.40
2006,10,31,03,26,-4.50
2006,10,31,03,27,-4.50
2006,10,31,03,28,-4.50
2006,10,31,03,29,-4.50
2006,10,31,03,30,-4.50
2006,10,31,03,31,-4.40
2006,10,31,03,32,-4.40
2006,10,31,03,33,-4.40
2006,10,31,03,34,-4.40
2006,10,31,03,35,-4.40
2006,10,31,03,36,-4.30
2006,10,31,03,37,-4.30
2006,10,31,03,38,-4.30
2006,10,31,03,39,-4.30
2006,10,31,03,40,-4.30
2006,10,31,03,41,-4.30
2006,10,31,03,42,-4.30
2006,10,31,03,43,-4.30
2006,10,31,03,44,-4.30
2006,10,31,03,45,-4.30
2006,10,31,03,46,-4.40
2006,10,31,03,47,-4.40
2006,10,31,03,48,-4.40
2006,10,31,03,49,-4.40
2006,10,31,03,50,-4.40
2006,10,31,03,51,-4.40
2006,10,31,03,52,-4.40
2006,10,31,03,53,-4.50
2006,10,31,03,54,-4.50
2006,10,31,03,55,-4.40
2006,10,31,03,56,-4.40
2006,10,31,03,57,-4.30
2006,10,31,03,58,-4.30
2006,10,31,03,59,-4.30
2006,10,31,04,00,-4.20
2006,10,31,04,01,-4.10
2006,10,31,04,02,-3.90
2006,10,31,04,03,-3.90
2006,10,31,04,04,-3.90
2006,10,31,04,05,-3.90
2006,10,31,04,06,-3.90
2006,10,31,04,07,-3.90
2006,10,31,04,08,-3.90
2006,10,31,04,09,-4.00
2006,10,31,04,10,-4.00
2006,10,31,04,11,-4.10
2006,10,31,04,12,-4.20
2006,10,31,04,13,-4.20
2006,10,31,04,14,-4.30
2006,10,31,04,15,-4.40
2006,10,31,04,16,-4.40
2006,10,31,04,17,-4.40
2006,10,31,04,18,-4.50
2006,10,31,04,19,-4.60
2006,10,31,04,20,-4.60
2006,10,31,04,21,-4.70
2006,10,31,04,22,-4.70
2006,10,31,04,23,-4.70
2006,10,31,04,24,-4.70
2006,10,31,04,25,-4.70
2006,10,31,04,26,-4.80
2006,10,31,04,27,-4.80
2006,10,31,04,28,-4.80
2006,10,31,04,29,-4.80
2006,10,31,04,30,-4.80
2006,10,31,04,31,-4.90
2006,10,31,04,32,-4.90
2006,10,31,04,33,-4.90
2006,10,31,04,34,-4.90
2006,10,31,04,35,-4.80
2006,10,31,04,36,-4.80
2006,10,31,04,37,-4.80
2006,10,31,04,38,-4.80
2006,10,31,04,39,-4.80
2006,10,31,04,40,-4.80
2006,10,31,04,41,-4.80
2006,10,31,04,42,-4.90
2006,10,31,04,43,-4.90
2006,10,31,04,44,-4.90
2006,10,31,04,45,-4.90
2006,10,31,04,46,-4.90
2006,10,31,04,47,-4.90
2006,10,31,04,48,-4.90
2006,10,31,04,49,-4.90
2006,10,31,04,50,-4.90
2006,10,31,04,51,-4.90
2006,10,31,04,52,-5.00
2006,10,31,04,53,-5.00
2006,10,31,04,54,-5.00
2006,10,31,04,55,-5.00
2006,10,31,04,56,-5.00
2006,10,31,04,57,-5.00
2006,10,31,04,58,-5.00
2006,10,31,04,59,-5.00
2006,10,31,05,00,-5.10
2006,10,31,05,01,-5.10
2006,10,31,05,02,-5.10
2006,10,31,05,03,-5.10
2006,10,31,05,04,-5.10
2006,10,31,05,05,-5.00
2006,10,31,05,06,-5.00
2006,10,31,05,07,-5.00
2006,10,31,05,08,-5.00
2006,10,31,05,09,-5.00
2006,10,31,05,10,-5.00
2006,10,31,05,11,-4.90
2006,10,31,05,12,-4.90
2006,10,31,05,13,-4.90
2006,10,31,05,14,-4.90
2006,10,31,05,15,-4.90
2006,10,31,05,16,-4.90
2006,10,31,05,17,-4.90
2006,10,31,05,18,-4.80
2006,10,31,05,19,-4.80
2006,10,31,05,20,-4.80
2006,10,31,05,21,-4.80
2006,10,31,05,22,-4.80
2006,10,31,05,23,-4.80
2006,10,31,05,24,-4.70
2006,10,31,05,25,-4.70
2006,10,31,05,26,-4.70
2006,10,31,05,27,-4.70
2006,10,31,05,28,-4.70
2006,10,31,05,29,-4.70
2006,10,31,05,30,-4.70
2006,10,31,05,31,-4.70
2006,10,31,05,32,-4.70
2006,10,31,05,33,-4.70
2006,10,31,05,34,-4.70
2006,10,31,05,35,-4.70
2006,10,31,05,36,-4.70
2006,10,31,05,37,-4.70
2006,10,31,05,38,-4.70
2006,10,31,05,39,-4.70
2006,10,31,05,40,-4.70
2006,10,31,05,41,-4.70
2006,10,31,05,42,-4.70
2006,10,31,05,43,-4.70
2006,10,31,05,44,-4.70
2006,10,31,05,45,-4.70
2006,10,31,05,46,-4.70
2006,10,31,05,47,-4.70
2006,10,31,05,48,-4.60
2006,10,31,05,49,-4.60
2006,10,31,05,50,-4.50
2006,10,31,05,51,-4.50
2006,10,31,05,52,-4.60
2006,10,31,05,53,-4.60
2006,10,31,05,54,-4.60
2006,10,31,05,55,-4.70
2006,10,31,05,56,-4.70
2006,10,31,05,57,-4.70
2006,10,31,05,58,-4.70
2006,10,31,05,59,-4.70
2006,10,31,06,00,-4.70
2006,10,31,06,01,-4.80
2006,10,31,06,02,-4.80
2006,10,31,06,03,-4.80
2006,10,31,06,04,-4.90
2006,10,31,06,05,-4.90
2006,10,31,06,06,-4.90
2006,10,31,06,07,-4.90
2006,10,31,06,08,-4.90
2006,10,31,06,09,-4.90
2006,10,31,06,10,-4.90
2006,10,31,06,11,-4.80
2006,10,31,06,12,-4.80
2006,10,31,06,13,-4.80
2006,10,31,06,14,-4.90
2006,10,31,06,15,-4.90
2006,10,31,06,16,-4.90
2006,10,31,06,17,-4.90
2006,10,31,06,18,-4.90
2006,10,31,06,19,-4.90
2006,10,31,06,20,-4.90
2006,10,31,06,21,-5.00
2006,10,31,06,22,-5.00
2006,10,31,06,23,-5.00
2006,10,31,06,24,-5.00
2006,10,31,06,25,-5.00
2006,10,31,06,26,-5.00
2006,10,31,06,27,-5.00
2006,10,31,06,28,-5.00
2006,10,31,06,29,-5.00
2006,10,31,06,30,-5.00
2006,10,31,06,31,-4.90
2006,10,31,06,32,-4.90
2006,10,31,06,33,-4.90
2006,10,31,06,34,-4.90
2006,10,31,06,35,-4.90
2006,10,31,06,36,-4.90
2006,10,31,06,37,-4.90
2006,10,31,06,38,-5.00
2006,10,31,06,39,-5.00
2006,10,31,06,40,-5.00
2006,10,31,06,41,-5.00
2006,10,31,06,42,-5.00
2006,10,31,06,43,-5.00
2006,10,31,06,44,-5.00
2006,10,31,06,45,-5.00
2006,10,31,06,46,-5.00
2006,10,31,06,47,-5.00
2006,10,31,06,48,-5.10
2006,10,31,06,49,-5.10
2006,10,31,06,50,-5.10
2006,10,31,06,51,-5.10
2006,10,31,06,52,-5.10
2006,10,31,06,53,-5.10
2006,10,31,06,54,-5.20
2006,10,31,06,55,-5.20
2006,10,31,06,56,-5.20
2006,10,31,06,57,-5.20
2006,10,31,06,58,-5.20
2006,10,31,06,59,-5.20
2006,10,31,07,00,-5.20
2006,10,31,07,01,-5.20
2006,10,31,07,02,-5.10
2006,10,31,07,03,-5.00
2006,10,31,07,04,-5.00
2006,10,31,07,05,-4.90
2006,10,31,07,06,-4.90
2006,10,31,07,07,-4.80
2006,10,31,07,08,-4.80
2006,10,31,07,09,-4.80
2006,10,31,07,10,-4.80
2006,10,31,07,11,-4.80
2006,10,31,07,12,-4.70
2006,10,31,07,13,-4.70
2006,10,31,07,14,-4.70
2006,10,31,07,15,-4.70
2006,10,31,07,16,-4.70
2006,10,31,07,17,-4.70
2006,10,31,07,18,-4.60
2006,10,31,07,19,-4.60
2006,10,31,07,20,-4.60
2006,10,31,07,21,-4.60
2006,10,31,07,22,-4.50
2006,10,31,07,23,-4.50
2006,10,31,07,24,-4.50
2006,10,31,07,25,-4.40
2006,10,31,07,26,-4.40
2006,10,31,07,27,-4.40
2006,10,31,07,28,-4.40
2006,10,31,07,29,-4.40
2006,10,31,07,30,-4.40
2006,10,31,07,31,-4.30
2006,10,31,07,32,-4.30
2006,10,31,07,33,-4.30
2006,10,31,07,34,-4.20
2006,10,31,07,35,-4.10
2006,10,31,07,36,-4.00
2006,10,31,07,37,-3.80
2006,10,31,07,38,-3.70
2006,10,31,07,39,-3.70
2006,10,31,07,40,-3.70
2006,10,31,07,41,-3.60
2006,10,31,07,42,-3.50
2006,10,31,07,43,-3.40
2006,10,31,07,44,-3.30
2006,10,31,07,45,-3.10
2006,10,31,07,46,-3.00
2006,10,31,07,47,-2.80
2006,10,31,07,48,-2.80
2006,10,31,07,49,-2.60
2006,10,31,07,50,-2.50
2006,10,31,07,51,-2.40
2006,10,31,07,52,-2.30
2006,10,31,07,53,-2.30
2006,10,31,07,54,-2.20
2006,10,31,07,55,-2.10
2006,10,31,07,56,-2.00
2006,10,31,07,57,-2.00
2006,10,31,07,58,-2.00
2006,10,31,07,59,-2.00
2006,10,31,08,00,-2.10
2006,10,31,08,01,-2.10
2006,10,31,08,02,-2.20
2006,10,31,08,03,-2.20
2006,10,31,08,04,-2.30
2006,10,31,08,05,-2.30
2006,10,31,08,06,-2.30
2006,10,31,08,07,-2.40
2006,10,31,08,08,-2.50
2006,10,31,08,09,-2.60
2006,10,31,08,10,-2.60
2006,10,31,08,11,-2.60
2006,10,31,08,12,-2.60
2006,10,31,08,13,-2.60
2006,10,31,08,14,-2.50
2006,10,31,08,15,-2.50
2006,10,31,08,16,-2.50
2006,10,31,08,17,-2.40
2006,10,31,08,18,-2.40
2006,10,31,08,19,-2.30
2006,10,31,08,20,-2.30
2006,10,31,08,21,-2.30
2006,10,31,08,22,-2.20
2006,10,31,08,23,-2.20
2006,10,31,08,24,-2.10
2006,10,31,08,25,-2.00
2006,10,31,08,26,-2.00
2006,10,31,08,27,-1.80
2006,10,31,08,28,-1.80
2006,10,31,08,29,-1.70
2006,10,31,08,30,-1.60
2006,10,31,08,31,-1.50
2006,10,31,08,32,-1.40
2006,10,31,08,33,-1.30
2006,10,31,08,34,-1.20
2006,10,31,08,35,-1.10
2006,10,31,08,36,-0.90
2006,10,31,08,37,-0.80
2006,10,31,08,38,-0.60
2006,10,31,08,39,-0.50
2006,10,31,08,40,-0.40
2006,10,31,08,41,-0.40
2006,10,31,08,42,-0.30
2006,10,31,08,43,-0.20
2006,10,31,08,44,-0.10
2006,10,31,08,45,0.10
2006,10,31,08,46,0.20
2006,10,31,08,47,0.40
2006,10,31,08,48,0.50
2006,10,31,08,49,0.60
2006,10,31,08,50,0.90
2006,10,31,08,51,1.10
2006,10,31,08,52,1.20
2006,10,31,08,53,1.30
2006,10,31,08,54,1.40
2006,10,31,08,55,1.50
2006,10,31,08,56,1.60
2006,10,31,08,57,1.70
2006,10,31,08,58,1.80
2006,10,31,08,59,1.90
2006,10,31,09,00,2.00
2006,10,31,09,01,2.10
2006,10,31,09,02,2.30
2006,10,31,09,03,2.40
2006,10,31,09,04,2.60
2006,10,31,09,05,2.80
2006,10,31,09,06,2.90
2006,10,31,09,07,3.10
2006,10,31,09,08,3.20
2006,10,31,09,09,3.30
2006,10,31,09,10,3.50
2006,10,31,09,11,3.60
2006,10,31,09,12,3.70
2006,10,31,09,13,3.80
2006,10,31,09,14,3.80
2006,10,31,09,15,3.90
2006,10,31,09,16,4.00
2006,10,31,09,17,4.00
2006,10,31,09,18,4.10
2006,10,31,09,19,4.20
2006,10,31,09,20,4.20
2006,10,31,09,21,4.30
2006,10,31,09,22,4.40
2006,10,31,09,23,4.40
2006,10,31,09,24,4.50
2006,10,31,09,25,4.50
2006,10,31,09,26,4.60
2006,10,31,09,27,4.60
2006,10,31,09,28,4.60
2006,10,31,09,29,4.70
2006,10,31,09,30,4.80
2006,10,31,09,31,4.80
2006,10,31,09,32,4.90
2006,10,31,09,33,4.90
2006,10,31,09,34,5.00
2006,10,31,09,35,5.10
2006,10,31,09,36,5.10
2006,10,31,09,37,5.20
2006,10,31,09,38,5.20
2006,10,31,09,39,5.20
2006,10,31,09,40,5.20
2006,10,31,09,41,5.20
2006,10,31,09,42,5.10
2006,10,31,09,43,5.10
2006,10,31,09,44,5.10
2006,10,31,09,45,5.20
2006,10,31,09,46,5.10
2006,10,31,09,47,5.10
2006,10,31,09,48,5.10
2006,10,31,09,49,5.10
2006,10,31,09,50,5.10
2006,10,31,09,51,5.10
2006,10,31,09,52,5.10
2006,10,31,09,53,5.10
2006,10,31,09,54,5.10
2006,10,31,09,55,5.10
2006,10,31,09,56,5.20
2006,10,31,09,57,5.10
2006,10,31,09,58,5.10
2006,10,31,09,59,5.10
2006,10,31,10,00,5.10
2006,10,31,10,01,5.20
2006,10,31,10,02,5.20
2006,10,31,10,03,5.20
2006,10,31,10,04,5.20
2006,10,31,10,05,5.20
2006,10,31,10,06,5.20
2006,10,31,10,07,5.20
2006,10,31,10,08,5.20
2006,10,31,10,09,5.30
2006,10,31,10,10,5.30
2006,10,31,10,11,5.30
2006,10,31,10,12,5.30
2006,10,31,10,13,5.30
2006,10,31,10,14,5.30
2006,10,31,10,15,5.30
2006,10,31,10,16,5.30
2006,10,31,10,17,5.40
2006,10,31,10,18,5.40
2006,10,31,10,19,5.50
2006,10,31,10,20,5.50
2006,10,31,10,21,5.50
2006,10,31,10,22,5.60
2006,10,31,10,23,5.50
2006,10,31,10,24,5.60
2006,10,31,10,25,5.60
2006,10,31,10,26,5.60
2006,10,31,10,27,5.60
2006,10,31,10,28,5.50
2006,10,31,10,29,5.50
2006,10,31,10,30,5.40
2006,10,31,10,31,5.50
2006,10,31,10,32,5.50
2006,10,31,10,33,5.60
2006,10,31,10,34,5.60
2006,10,31,10,35,5.60
2006,10,31,10,36,5.60
2006,10,31,10,37,5.50
2006,10,31,10,38,5.50
2006,10,31,10,39,5.60
2006,10,31,10,40,5.60
2006,10,31,10,41,5.60
2006,10,31,10,42,5.60
2006,10,31,10,43,5.60
2006,10,31,10,44,5.70
2006,10,31,10,45,5.70
2006,10,31,10,46,5.70
2006,10,31,10,47,5.80
2006,10,31,10,48,5.90
2006,10,31,10,49,6.00
2006,10,31,10,50,6.00
2006,10,31,10,51,6.00
2006,10,31,10,52,6.00
2006,10,31,10,53,6.00
2006,10,31,10,54,6.00
2006,10,31,10,55,6.10
2006,10,31,10,56,6.10
2006,10,31,10,57,6.10
2006,10,31,10,58,6.10
2006,10,31,10,59,6.10
2006,10,31,11,00,6.10
2006,10,31,11,01,6.10
2006,10,31,11,02,6.10
2006,10,31,11,03,6.20
2006,10,31,11,04,6.20
2006,10,31,11,05,6.20
2006,10,31,11,06,6.10
2006,10,31,11,07,6.10
2006,10,31,11,08,6.10
2006,10,31,11,09,6.10
2006,10,31,11,10,6.10
2006,10,31,11,11,6.10
2006,10,31,11,12,6.10
2006,10,31,11,13,6.10
2006,10,31,11,14,6.10
2006,10,31,11,15,6.10
2006,10,31,11,16,6.10
2006,10,31,11,17,6.10
2006,10,31,11,18,6.20
2006,10,31,11,19,6.20
2006,10,31,11,20,6.30
2006,10,31,11,21,6.30
2006,10,31,11,22,6.40
2006,10,31,11,23,6.40
2006,10,31,11,24,6.40
2006,10,31,11,25,6.30
2006,10,31,11,26,6.30
2006,10,31,11,27,6.40
2006,10,31,11,28,6.40
2006,10,31,11,29,6.40
2006,10,31,11,30,6.40
2006,10,31,11,31,6.40
2006,10,31,11,32,6.40
2006,10,31,11,33,6.40
2006,10,31,11,34,6.40
2006,10,31,11,35,6.30
2006,10,31,11,36,6.30
2006,10,31,11,37,6.30
2006,10,31,11,38,6.40
2006,10,31,11,39,6.40
2006,10,31,11,40,6.40
2006,10,31,11,41,6.40
2006,10,31,11,42,6.40
2006,10,31,11,43,6.60
2006,10,31,11,44,6.60
2006,10,31,11,45,6.60
2006,10,31,11,46,6.60
2006,10,31,11,47,6.60
2006,10,31,11,48,6.50
2006,10,31,11,49,6.40
2006,10,31,11,50,6.40
2006,10,31,11,51,6.40
2006,10,31,11,52,6.40
2006,10,31,11,53,6.40
2006,10,31,11,54,6.40
2006,10,31,11,55,6.50
2006,10,31,11,56,6.60
2006,10,31,11,57,6.60
2006,10,31,11,58,6.60
2006,10,31,11,59,6.70
2006,10,31,12,00,6.60
2006,10,31,12,01,6.60
2006,10,31,12,02,6.70
2006,10,31,12,03,6.80
2006,10,31,12,04,6.80
2006,10,31,12,05,6.90
2006,10,31,12,06,6.90
2006,10,31,12,07,6.80
2006,10,31,12,08,6.80
2006,10,31,12,09,6.80
2006,10,31,12,10,6.80
2006,10,31,12,11,6.70
2006,10,31,12,12,6.70
2006,10,31,12,13,6.70
2006,10,31,12,14,6.70
2006,10,31,12,15,6.80
2006,10,31,12,16,6.80
2006,10,31,12,17,6.80
2006,10,31,12,18,6.80
2006,10,31,12,19,6.80
2006,10,31,12,20,6.90
2006,10,31,12,21,6.90
2006,10,31,12,22,6.90
2006,10,31,12,23,6.90
2006,10,31,12,24,7.00
2006,10,31,12,25,7.00
2006,10,31,12,26,7.10
2006,10,31,12,27,7.10
2006,10,31,12,28,7.20
2006,10,31,12,29,7.20
2006,10,31,12,30,7.20
2006,10,31,12,31,7.20
2006,10,31,12,32,7.30
2006,10,31,12,33,7.30
2006,10,31,12,34,7.20
2006,10,31,12,35,7.10
2006,10,31,12,36,7.10
2006,10,31,12,37,7.10
2006,10,31,12,38,7.00
2006,10,31,12,39,7.00
2006,10,31,12,40,7.10
2006,10,31,12,41,7.10
2006,10,31,12,42,7.20
2006,10,31,12,43,7.30
2006,10,31,12,44,7.30
2006,10,31,12,45,7.20
2006,10,31,12,46,7.20
2006,10,31,12,47,7.10
2006,10,31,12,48,7.10
2006,10,31,12,49,7.10
2006,10,31,12,50,7.10
2006,10,31,12,51,7.10
2006,10,31,12,52,7.10
2006,10,31,12,53,7.10
2006,10,31,12,54,7.00
2006,10,31,12,55,7.00
2006,10,31,12,56,7.10
2006,10,31,12,57,7.10
2006,10,31,12,58,7.10
2006,10,31,12,59,7.10
2006,10,31,13,00,7.20
2006,10,31,13,01,7.20
2006,10,31,13,02,7.30
2006,10,31,13,03,7.20
2006,10,31,13,04,7.20
2006,10,31,13,05,7.20
2006,10,31,13,06,7.20
2006,10,31,13,07,7.20
2006,10,31,13,08,7.20
2006,10,31,13,09,7.20
2006,10,31,13,10,7.30
2006,10,31,13,11,7.30
2006,10,31,13,12,7.40
2006,10,31,13,13,7.40
2006,10,31,13,14,7.50
2006,10,31,13,15,7.50
2006,10,31,13,16,7.50
2006,10,31,13,17,7.50
2006,10,31,13,18,7.50
2006,10,31,13,19,7.30
2006,10,31,13,20,7.30
2006,10,31,13,21,7.30
2006,10,31,13,22,7.30
2006,10,31,13,23,7.30
2006,10,31,13,24,7.30
2006,10,31,13,25,7.20
2006,10,31,13,26,7.10
2006,10,31,13,27,7.10
2006,10,31,13,28,7.10
2006,10,31,13,29,7.00
2006,10,31,13,30,7.00
2006,10,31,13,31,7.10
2006,10,31,13,32,7.10
2006,10,31,13,33,7.10
2006,10,31,13,34,7.10
2006,10,31,13,35,7.10
2006,10,31,13,36,7.10
2006,10,31,13,37,7.20
2006,10,31,13,38,7.20
2006,10,31,13,39,7.30
2006,10,31,13,40,7.30
2006,10,31,13,41,7.30
2006,10,31,13,42,7.30
2006,10,31,13,43,7.30
2006,10,31,13,44,7.30
2006,10,31,13,45,7.30
2006,10,31,13,46,7.30
2006,10,31,13,47,7.30
2006,10,31,13,48,7.30
2006,10,31,13,49,7.30
2006,10,31,13,50,7.30
2006,10,31,13,51,7.30
2006,10,31,13,52,7.30
2006,10,31,13,53,7.30
2006,10,31,13,54,7.30
2006,10,31,13,55,7.30
2006,10,31,13,56,7.40
2006,10,31,13,57,7.40
2006,10,31,13,58,7.50
2006,10,31,13,59,7.40
2006,10,31,14,00,7.40
2006,10,31,14,01,7.40
2006,10,31,14,02,7.40
2006,10,31,14,03,7.40
2006,10,31,14,04,7.40
2006,10,31,14,05,7.40
2006,10,31,14,06,7.40
2006,10,31,14,07,7.40
2006,10,31,14,08,7.50
2006,10,31,14,09,7.60
2006,10,31,14,10,7.60
2006,10,31,14,11,7.60
2006,10,31,14,12,7.60
2006,10,31,14,13,7.60
2006,10,31,14,14,7.60
2006,10,31,14,15,7.50
2006,10,31,14,16,7.50
2006,10,31,14,17,7.50
2006,10,31,14,18,7.50
2006,10,31,14,19,7.50
2006,10,31,14,20,7.50
2006,10,31,14,21,7.50
2006,10,31,14,22,7.60
2006,10,31,14,23,7.60
2006,10,31,14,24,7.60
2006,10,31,14,25,7.60
2006,10,31,14,26,7.60
2006,10,31,14,27,7.60
2006,10,31,14,28,7.60
2006,10,31,14,29,7.60
2006,10,31,14,30,7.60
2006,10,31,14,31,7.60
2006,10,31,14,32,7.60
2006,10,31,14,33,7.70
2006,10,31,14,34,7.70
2006,10,31,14,35,7.70
2006,10,31,14,36,7.70
2006,10,31,14,37,7.60
2006,10,31,14,38,7.60
2006,10,31,14,39,7.50
2006,10,31,14,40,7.50
2006,10,31,14,41,7.50
2006,10,31,14,42,7.50
2006,10,31,14,43,7.50
2006,10,31,14,44,7.40
2006,10,31,14,45,7.40
2006,10,31,14,46,7.40
2006,10,31,14,47,7.50
2006,10,31,14,48,7.50
2006,10,31,14,49,7.50
2006,10,31,14,50,7.60
2006,10,31,14,51,7.60
2006,10,31,14,52,7.60
2006,10,31,14,53,7.60
2006,10,31,14,54,7.70
2006,10,31,14,55,7.70
2006,10,31,14,56,7.70
2006,10,31,14,57,7.60
2006,10,31,14,58,7.60
2006,10,31,14,59,7.60
2006,10,31,15,00,7.60
2006,10,31,15,01,7.50
2006,10,31,15,02,7.40
2006,10,31,15,03,7.40
2006,10,31,15,04,7.40
2006,10,31,15,05,7.40
2006,10,31,15,06,7.40
2006,10,31,15,07,7.40
2006,10,31,15,08,7.40
2006,10,31,15,09,7.40
2006,10,31,15,10,7.40
2006,10,31,15,11,7.50
2006,10,31,15,12,7.50
2006,10,31,15,13,7.50
2006,10,31,15,14,7.60
2006,10,31,15,15,7.60
2006,10,31,15,16,7.60
2006,10,31,15,17,7.60
2006,10,31,15,18,7.60
2006,10,31,15,19,7.60
2006,10,31,15,20,7.50
2006,10,31,15,21,7.50
2006,10,31,15,22,7.60
2006,10,31,15,23,7.60
2006,10,31,15,24,7.60
2006,10,31,15,25,7.50
2006,10,31,15,26,7.50
2006,10,31,15,27,7.50
2006,10,31,15,28,7.40
2006,10,31,15,29,7.40
2006,10,31,15,30,7.40
2006,10,31,15,31,7.40
2006,10,31,15,32,7.40
2006,10,31,15,33,7.40
2006,10,31,15,34,7.40
2006,10,31,15,35,7.40
2006,10,31,15,36,7.40
2006,10,31,15,37,7.40
2006,10,31,15,38,7.40
2006,10,31,15,39,7.40
2006,10,31,15,40,7.40
2006,10,31,15,41,7.40
2006,10,31,15,42,7.30
2006,10,31,15,43,7.30
2006,10,31,15,44,7.40
2006,10,31,15,45,7.40
2006,10,31,15,46,7.40
2006,10,31,15,47,7.40
2006,10,31,15,48,7.30
2006,10,31,15,49,7.30
2006,10,31,15,50,7.30
2006,10,31,15,51,7.30
2006,10,31,15,52,7.30
2006,10,31,15,53,7.30
2006,10,31,15,54,7.30
2006,10,31,15,55,7.30
2006,10,31,15,56,7.30
2006,10,31,15,57,7.40
2006,10,31,15,58,7.40
2006,10,31,15,59,7.40
2006,10,31,16,00,7.40
2006,10,31,16,01,7.40
2006,10,31,16,02,7.40
2006,10,31,16,03,7.40
2006,10,31,16,04,7.40
2006,10,31,16,05,7.40
2006,10,31,16,06,7.40
2006,10,31,16,07,7.30
2006,10,31,16,08,7.30
2006,10,31,16,09,7.30
2006,10,31,16,10,7.30
2006,10,31,16,11,7.30
2006,10,31,16,12,7.30
2006,10,31,16,13,7.30
2006,10,31,16,14,7.30
2006,10,31,16,15,7.30
2006,10,31,16,16,7.30
2006,10,31,16,17,7.30
2006,10,31,16,18,7.30
2006,10,31,16,19,7.30
2006,10,31,16,20,7.30
2006,10,31,16,21,7.30
2006,10,31,16,22,7.20
2006,10,31,16,23,7.20
2006,10,31,16,24,7.20
2006,10,31,16,25,7.20
2006,10,31,16,26,7.20
2006,10,31,16,27,7.10
2006,10,31,16,28,7.10
2006,10,31,16,29,7.10
2006,10,31,16,30,7.10
2006,10,31,16,31,7.00
2006,10,31,16,32,7.00
2006,10,31,16,33,7.00
2006,10,31,16,34,7.00
2006,10,31,16,35,6.90
2006,10,31,16,36,6.90
2006,10,31,16,37,6.90
2006,10,31,16,38,6.80
2006,10,31,16,39,6.80
2006,10,31,16,40,6.80
2006,10,31,16,41,6.80
2006,10,31,16,42,6.80
2006,10,31,16,43,6.70
2006,10,31,16,44,6.70
2006,10,31,16,45,6.60
2006,10,31,16,46,6.60
2006,10,31,16,47,6.60
2006,10,31,16,48,6.50
2006,10,31,16,49,6.40
2006,10,31,16,50,6.40
2006,10,31,16,51,6.40
2006,10,31,16,52,6.40
2006,10,31,16,53,6.30
2006,10,31,16,54,6.30
2006,10,31,16,55,6.20
2006,10,31,16,56,6.20
2006,10,31,16,57,6.20
2006,10,31,16,58,6.20
2006,10,31,16,59,6.20
2006,10,31,17,00,6.10
2006,10,31,17,01,6.10
2006,10,31,17,02,6.10
2006,10,31,17,03,6.10
2006,10,31,17,04,6.00
2006,10,31,17,05,6.00
2006,10,31,17,06,6.00
2006,10,31,17,07,5.90
2006,10,31,17,08,5.90
2006,10,31,17,09,5.80
2006,10,31,17,10,5.80
2006,10,31,17,11,5.70
2006,10,31,17,12,5.70
2006,10,31,17,13,5.70
2006,10,31,17,14,5.70
2006,10,31,17,15,5.70
2006,10,31,17,16,5.60
2006,10,31,17,17,5.50
2006,10,31,17,18,5.50
2006,10,31,17,19,5.40
2006,10,31,17,20,5.30
2006,10,31,17,21,5.30
2006,10,31,17,22,5.30
2006,10,31,17,23,5.20
2006,10,31,17,24,5.10
2006,10,31,17,25,5.10
2006,10,31,17,26,5.10
2006,10,31,17,27,5.00
2006,10,31,17,28,4.90
2006,10,31,17,29,4.90
2006,10,31,17,30,4.90
2006,10,31,17,31,4.80
2006,10,31,17,32,4.70
2006,10,31,17,33,4.70
2006,10,31,17,34,4.60
2006,10,31,17,35,4.60
2006,10,31,17,36,4.50
2006,10,31,17,37,4.50
2006,10,31,17,38,4.40
2006,10,31,17,39,4.40
2006,10,31,17,40,4.30
2006,10,31,17,41,4.20
2006,10,31,17,42,4.20